User: anonymous   Login
Location: ??? ???
(33.4974°N, 35.4618°E)
Time: 20:46:31
(UTC+00:00)
Language:

CRYOSAT 2 - Orbit

View from above orbital plane
View from above orbital plane
View from above satellite
View from above satellite

Ground track
Ground track

The orbit data is extracted from the following two-line orbital elements,

1 36508U 10013A   21016.49312543  .00000006  00000-0  71586-6 0  9997
2 36508  92.0186 159.2301 0005424 183.2570 176.8603 14.51909791571147
Epoch (UTC): 16 January 2021 11:50:06
Eccentricity: 0.0005424
inclination: 92.0186°
perigee height: 715 km
apogee height: 723 km
right ascension of ascending node: 159.2301°
argument of perigee: 183.2570°
revolutions per day: 14.51909791
mean anomaly at epoch: 176.8603°
orbit number at epoch: 57114

The dashed part of the orbit path shows where the satellite is in the earth's shadow,  

DLR